This is the latest recevied weather packets stored in our database for station/object W4NDF-13. If no packets are shown the sender has not sent any weather packets the latest 10 day(s).
| Time | Temp. | Humidity | Pressure | Rain* | Wind** | Luminosity | Snow |
|---|---|---|---|---|---|---|---|
| 1777992917 | 25.56° C | 69% | 1014.6 hPa | 0 mm | - | 235 W/m² | - |
| 1777992616 | 25.56° C | 69% | 1014.5 hPa | 0 mm | - | 481 W/m² | - |
| 1777992313 | 25° C | 69% | 1014.4 hPa | 0 mm | - | 506 W/m² | - |
| 1777992010 | 25° C | 70% | 1014.3 hPa | 0 mm | - | 465 W/m² | - |
| 1777991708 | 25° C | 70% | 1014.7 hPa | 0 mm | - | 457 W/m² | - |
| 1777991405 | 24.44° C | 71% | 1014.5 hPa | 0 mm | - | 468 W/m² | - |
| 1777991102 | 24.44° C | 72% | 1014.4 hPa | 0 mm | - | 451 W/m² | - |
| 1777990799 | 24.44° C | 72% | 1014.4 hPa | 0 mm | - | 408 W/m² | - |
| 1777990496 | 23.89° C | 74% | 1014.5 hPa | 0 mm | - | 382 W/m² | - |
| 1777989890 | 23.89° C | 75% | 1014.7 hPa | 0 mm | - | 319 W/m² | - |
| 1777989586 | 23.89° C | 75% | 1014.3 hPa | 0 mm | - | 273 W/m² | - |
| 1777989283 | 23.89° C | 75% | 1014.7 hPa | 0 mm | - | 312 W/m² | - |
| 1777988979 | 23.89° C | 76% | 1014.6 hPa | 0 mm | - | 308 W/m² | - |
| 1777988676 | 23.89° C | 79% | 1014.4 hPa | 0 mm | - | 287 W/m² | - |
| 1777988372 | 23.33° C | 79% | 1014 hPa | 0 mm | - | 227 W/m² | - |
| 1777988070 | 23.33° C | 78% | 1014.1 hPa | 0 mm | - | 306 W/m² | - |
| 1777987765 | 23.33° C | 79% | 1014.2 hPa | 0 mm | - | 104 W/m² | - |
| 1777987462 | 22.78° C | 79% | 1013.8 hPa | 0 mm | - | 249 W/m² | - |
| 1777987160 | 22.78° C | 80% | 1014 hPa | 0 mm | - | 222 W/m² | - |
| 1777986857 | 22.78° C | 80% | 1013.8 hPa | 0 mm | - | 214 W/m² | - |
| 1777986555 | 22.22° C | 79% | 1013.9 hPa | 0 mm | - | 209 W/m² | - |
| 1777986252 | 22.22° C | 80% | 1014 hPa | 0 mm | - | 198 W/m² | - |
| 1777985949 | 21.67° C | 81% | 1014.1 hPa | 0 mm | - | 120 W/m² | - |
| 1777985647 | 21.67° C | 81% | 1014.1 hPa | 0 mm | - | 109 W/m² | - |
| 1777985343 | 21.67° C | 81% | 1014 hPa | 0 mm | - | 98 W/m² | - |
* Rain latest hour (hover to see other rain measurements)
** Current wind speed in m/s (hover to see current wind gust speed)